[[{"header":{"parameterUnit":"m.s-1","parameterCategory":1,"la1":30.2991,"la2":30.254,"lo1":-89.0895,"lo2":-89.0444,"dy":0.0017,"dx":0.0017,"nx":28,"ny":28,"refTime":"2024-07-16T21:00:00:Z","depth":0,"parameterNumber":2,"parameterNumberName":"U-component_of_WINDS"},"data":[0,0,0,0,0,0,0,0,0,0,0,0,0,0,0,0,0,0,0,0,0,0,0,0,0,0,0,0,0,0,0,0,0,0,0,0,0,0,0,0,0,0,0,0,0,0,0,0,0,0,0,0,0,0,0,0,0,0,2.6264,2.6265,0,2.641,2.6412,2.6413,2.6407,2.6405,2.6403,2.6401,2.6553,2.6558,2.6564,0,0,0,0,0,0,0,0,0,0,0,0,0,2.5979,2.5984,2.6264,2.6265,2.6267,2.641,2.6412,2.6414,2.6407,2.6405,2.6402,2.64,2.6551,2.6558,2.6565,0,0,0,0,0,0,0,0,0,0,0,0,0,2.6112,2.5986,2.6263,2.6281,2.6284,2.6409,2.6412,2.6414,2.6408,2.6405,2.6402,2.6399,2.6548,2.6557,2.6566,2.6683,0,0,2.6593,2.6597,0,0,0,0,0,0,0,0,2.6104,2.6122,2.6277,2.628,2.6284,2.6387,2.6367,2.6505,2.6409,2.6361,2.6401,2.6397,2.65,2.6513,2.6547,2.669,2.6697,2.6594,2.6599,2.6603,2.6606,0,0,0,0,0,0,0,2.6095,2.6116,2.6322,2.6279,2.6283,2.6282,2.6298,2.6393,2.6446,2.6365,2.6365,2.6382,2.6502,2.6539,2.6551,2.6699,2.6594,2.6602,2.6607,2.6611,2.6944,2.6948,0,0,0,0,0,0,2.6082,2.6108,2.6317,2.6326,2.6184,2.629,2.6307,2.6357,2.6445,2.6456,2.6385,2.6381,2.6525,2.654,2.6556,2.6698,2.6603,2.6612,2.6617,2.6941,2.6945,2.6949,0,0,0,0,0,0,2.6076,2.6101,2.6311,2.6217,2.6244,2.6298,2.6354,2.6362,2.6399,2.646,2.647,2.6413,2.6523,2.6543,2.6651,2.6703,2.6616,2.6624,2.6937,2.6942,2.6947,2.6983,0,0,0,0,0,0,2.6068,2.6098,2.6143,2.6218,2.6249,2.6404,2.6358,2.6367,2.6414,2.6411,2.6489,2.6499,2.6522,2.6638,2.666,2.6714,2.6631,2.6932,2.6939,2.6945,2.6978,2.6989,2.6999,0,0,0,0,0,2.6057,2.6149,2.6146,2.6171,2.6306,2.6407,2.6424,2.6449,2.6418,2.6464,2.6503,2.6496,2.6694,2.6649,2.6674,2.6731,2.6929,2.6937,2.6945,2.6973,2.6987,2.6999,0,0,0,0,0,0,2.608,2.6159,2.6157,2.6275,2.6334,2.6405,2.6464,2.6463,2.6532,2.6527,2.6555,2.6572,2.668,2.6717,2.6665,2.6849,2.6808,2.6821,2.6821,2.6834,2.6845,2.6833,2.6638,0,0,0,0,0,2.6098,2.6173,2.6238,2.6336,2.6366,2.641,2.6454,2.6468,2.653,2.6556,2.6603,2.6664,2.674,2.6789,2.6863,2.6983,2.7,2.7035,2.7046,2.7054,2.7065,2.713,2.7146,2.6975,2.6975,2.6974,0,0,2.6137,2.619,2.6235,2.6342,2.6389,2.6465,2.6431,2.6513,2.657,2.6568,2.6672,2.6709,2.678,2.6894,2.6946,2.6928,2.7116,2.7064,2.707,2.7077,2.714,2.7156,2.717,2.698,2.6979,2.6978,0,0,2.6247,2.6295,2.6381,2.6429,2.6501,2.6529,2.655,2.6622,2.6645,2.675,2.675,2.6818,2.6948,2.6998,2.704,2.7168,2.7164,2.7191,2.7246,2.7309,2.7323,2.7335,2.7379,2.7395,2.7202,2.7202,2.7202,0,2.6287,2.6402,2.6426,2.6508,2.6554,2.6555,2.6642,2.6688,2.678,2.6812,2.679,2.6952,2.7,2.7125,2.7156,2.719,2.7214,2.7182,2.7319,2.7331,2.7343,2.7385,2.7402,2.7205,2.7204,2.7204,2.7204,0,2.6446,2.6526,2.6587,2.6675,2.6728,2.6813,2.6849,2.69,2.6909,2.6939,2.7045,2.7102,2.7186,2.7217,2.7227,2.7344,2.7329,2.7313,2.7272,2.7362,2.7402,2.7418,2.7209,2.7208,2.7207,2.7206,0,0,2.6575,2.6674,2.6696,2.6735,2.6814,2.6876,2.696,2.7041,2.7084,2.7148,2.7218,2.7328,2.7312,2.736,2.7376,2.7431,2.7527,2.7408,2.741,2.7427,2.7657,2.7668,2.7687,2.7525,2.7528,2.7531,2.7651,0,2.6692,2.6841,2.6864,2.6995,2.7067,2.7069,2.7142,2.7198,2.7229,2.7296,2.733,2.7407,2.7381,2.741,2.7465,2.7504,2.7573,2.7496,2.7591,2.7594,2.7572,2.7708,2.772,2.7831,2.7667,2.767,2.7671,0,2.6849,2.6915,2.7053,2.712,2.7152,2.7217,2.7292,2.7356,2.742,2.7438,2.7491,2.75,2.7587,2.7542,2.7662,2.7609,2.7649,2.7674,2.7679,2.7688,2.7637,2.7719,2.7867,2.7883,2.7697,2.7695,2.7693,0,2.6927,2.7051,2.7149,2.7182,2.7264,2.7309,2.7346,2.7406,2.7453,2.7519,2.755,2.7626,2.7667,2.7726,2.7754,2.772,2.7872,2.7831,2.7889,2.7889,2.7921,2.7918,2.8075,2.7949,2.7949,2.7948,2.7948,0,2.7055,2.7139,2.7185,2.7245,2.7338,2.7364,2.7456,2.7491,2.7544,2.7611,2.7618,2.768,2.7715,2.7783,2.7806,2.7901,2.792,2.7937,2.7942,2.7936,2.7933,2.7962,2.7954,2.7953,2.7952,2.7951,2.795,0,2.7158,2.7192,2.7299,2.7366,2.7385,2.7451,2.7509,2.7567,2.7597,2.7682,2.7703,2.7751,2.783,2.7865,2.7964,2.7979,2.8087,2.8087,2.8065,2.8067,2.8123,2.8117,2.8303,2.8328,2.8186,2.8188,2.8189,0,2.7237,2.7301,2.7375,2.742,2.7457,2.7529,2.7576,2.7604,2.7653,2.7729,2.7778,2.7858,2.7923,2.8051,2.8094,2.8169,2.817,2.823,2.8182,2.8173,2.817,2.8165,2.8171,2.8239,2.824,2.8242,2.8243,0,2.7373,2.7386,2.7453,2.7527,2.7583,2.7642,2.77,2.7737,2.7773,2.7828,2.7909,2.796,2.8059,2.8138,2.8216,2.8253,2.8254,2.8258,2.8275,2.8269,2.8253,2.826,2.8088,2.8253,2.8252,2.8251,2.8251,2.825,2.7465,2.7522,2.7582,2.7657,2.7703,2.7757,2.7814,2.7851,2.7918,2.8001,2.8013,2.81,2.8161,2.8265,2.8305,2.8373,2.8358,2.8383,2.839,2.8395,2.8398,2.8243,2.8387,2.8387,2.8387,2.8387,2.8387,0,2.76,2.7638,2.7707,2.7787,2.7846,2.784,2.7904,2.7953,2.8029,2.8085,2.8149,2.8241,2.8317,2.8366,2.8443,2.8488,2.849,2.8507,2.8503,2.8512,2.8408,2.8384,2.8504,2.8504,2.8504,2.8504,2.8504,2.8503,2.7677,2.7771,2.7792,2.7909,2.7947,2.8031,2.8067,2.8116,2.8161,2.8264,2.8326,2.8358,2.8411,2.8491,2.8561,2.8573,2.8601,2.8618,2.863,2.8531,2.8519,2.8507,2.8485,2.8624,2.8624,2.8728,2.8729,2.8729]},{"header":{"parameterUnit":"m.s-1","parameterCategory":1,"la1":30.2991,"la2":30.254,"lo1":-89.0895,"lo2":-89.0444,"dy":0.0017,"dx":0.0017,"nx":28,"ny":28,"refTime":"2024-07-16T21:00:00:Z","depth":0,"parameterNumber":3,"parameterNumberName":"V-component_of_WINDS"},"data":[0,0,0,0,0,0,0,0,0,0,0,0,0,0,0,0,0,0,0,0,0,0,0,0,0,0,0,0,0,0,0,0,0,0,0,0,0,0,0,0,0,0,0,0,0,0,0,0,0,0,0,0,0,0,0,0,0,0,-0.319,-0.3191,0,-0.3223,-0.3224,-0.3224,-0.3235,-0.3235,-0.3235,-0.3235,-0.3268,-0.3269,-0.327,0,0,0,0,0,0,0,0,0,0,0,0,0,-0.3138,-0.3138,-0.319,-0.3191,-0.3191,-0.3223,-0.3224,-0.3224,-0.3235,-0.3235,-0.3235,-0.3235,-0.3268,-0.3269,-0.327,0,0,0,0,0,0,0,0,0,0,0,0,0,-0.3164,-0.3139,-0.319,-0.3201,-0.3202,-0.3223,-0.3224,-0.3224,-0.3235,-0.3235,-0.3235,-0.3235,-0.3267,-0.3269,-0.327,-0.3283,0,0,-0.3275,-0.3275,0,0,0,0,0,0,0,0,-0.3163,-0.3166,-0.3199,-0.32,-0.3201,-0.3225,-0.3217,-0.3244,-0.3235,-0.3223,-0.3235,-0.3235,-0.3254,-0.3256,-0.3263,-0.3285,-0.3286,-0.3275,-0.3276,-0.3277,-0.3277,0,0,0,0,0,0,0,-0.3161,-0.3165,-0.3203,-0.3199,-0.3201,-0.3204,-0.3207,-0.3222,-0.3239,-0.3224,-0.3225,-0.3228,-0.3255,-0.3262,-0.3264,-0.3287,-0.3275,-0.3276,-0.3277,-0.3278,-0.3321,-0.3321,0,0,0,0,0,0,-0.3157,-0.3163,-0.3202,-0.3204,-0.3181,-0.3205,-0.3209,-0.3218,-0.3239,-0.3242,-0.3229,-0.3229,-0.3259,-0.3262,-0.3265,-0.3282,-0.3277,-0.3278,-0.3279,-0.3321,-0.3321,-0.3322,0,0,0,0,0,0,-0.3156,-0.3161,-0.3201,-0.3184,-0.3189,-0.3206,-0.3216,-0.3218,-0.3225,-0.3242,-0.3245,-0.3233,-0.3259,-0.3263,-0.3279,-0.3283,-0.3279,-0.328,-0.3321,-0.3321,-0.3321,-0.3315,0,0,0,0,0,0,-0.3155,-0.316,-0.3165,-0.3184,-0.319,-0.3214,-0.3216,-0.3219,-0.3228,-0.3229,-0.3247,-0.325,-0.3259,-0.3276,-0.328,-0.3285,-0.3281,-0.332,-0.3321,-0.3321,-0.3315,-0.3315,-0.3316,0,0,0,0,0,-0.3153,-0.3162,-0.3165,-0.317,-0.3197,-0.3214,-0.3218,-0.3228,-0.3228,-0.3233,-0.3245,-0.3249,-0.3282,-0.3278,-0.3282,-0.3288,-0.332,-0.3321,-0.3321,-0.3315,-0.3315,-0.3316,0,0,0,0,0,0,-0.3143,-0.3165,-0.3169,-0.3184,-0.3197,-0.3216,-0.3223,-0.3228,-0.3242,-0.3242,-0.3254,-0.3258,-0.3273,-0.3282,-0.3277,-0.3302,-0.3301,-0.3303,-0.3295,-0.3296,-0.3296,-0.3293,-0.3282,0,0,0,0,0,-0.3143,-0.3155,-0.3173,-0.3185,-0.3192,-0.3206,-0.3214,-0.3221,-0.3235,-0.3241,-0.3253,-0.3266,-0.328,-0.3288,-0.3301,-0.3317,-0.3321,-0.3322,-0.3323,-0.3323,-0.3324,-0.3333,-0.3334,-0.3323,-0.3323,-0.3323,0,0,-0.3142,-0.3156,-0.3163,-0.3184,-0.3195,-0.3207,-0.3211,-0.3224,-0.3233,-0.3243,-0.3259,-0.3268,-0.3284,-0.3299,-0.3307,-0.3307,-0.3328,-0.3323,-0.3323,-0.3324,-0.3333,-0.3334,-0.3335,-0.3324,-0.3324,-0.3324,0,0,-0.3148,-0.3159,-0.3171,-0.3182,-0.3198,-0.3208,-0.3211,-0.3229,-0.3235,-0.3251,-0.3259,-0.327,-0.3293,-0.3304,-0.3313,-0.3323,-0.3328,-0.3327,-0.3328,-0.3336,-0.3337,-0.3338,-0.3342,-0.3343,-0.3328,-0.3328,-0.3328,0,-0.3145,-0.3164,-0.3176,-0.3188,-0.3198,-0.3207,-0.3219,-0.3229,-0.3249,-0.3255,-0.3256,-0.3285,-0.3296,-0.3314,-0.3317,-0.3323,-0.3327,-0.3325,-0.3336,-0.3337,-0.3338,-0.3342,-0.3343,-0.3328,-0.3328,-0.3328,-0.3328,0,-0.316,-0.3173,-0.318,-0.32,-0.321,-0.3222,-0.3236,-0.3244,-0.3251,-0.3261,-0.3277,-0.3291,-0.3307,-0.3312,-0.3318,-0.3332,-0.3331,-0.3334,-0.3334,-0.3338,-0.3342,-0.3344,-0.3327,-0.3327,-0.3327,-0.3327,0,0,-0.316,-0.3186,-0.3188,-0.3197,-0.3217,-0.3227,-0.324,-0.3256,-0.3263,-0.3277,-0.3288,-0.3307,-0.331,-0.3319,-0.3327,-0.3335,-0.3342,-0.3336,-0.3337,-0.3337,-0.3358,-0.3356,-0.3357,-0.3346,-0.3346,-0.3346,-0.3356,0,-0.3168,-0.3191,-0.3202,-0.322,-0.3233,-0.3242,-0.3253,-0.3267,-0.3276,-0.3288,-0.3299,-0.3312,-0.3314,-0.332,-0.3328,-0.3339,-0.3346,-0.3339,-0.3356,-0.3356,-0.3351,-0.3359,-0.3357,-0.3366,-0.3358,-0.3358,-0.3358,0,-0.318,-0.3194,-0.3213,-0.3232,-0.3237,-0.3247,-0.3263,-0.3274,-0.3289,-0.3296,-0.3307,-0.3315,-0.3328,-0.3328,-0.3347,-0.3342,-0.3349,-0.3356,-0.3357,-0.3359,-0.3357,-0.3361,-0.3369,-0.337,-0.3361,-0.336,-0.336,0,-0.3178,-0.3201,-0.3216,-0.3224,-0.3245,-0.3252,-0.3261,-0.3276,-0.3285,-0.3299,-0.3306,-0.3321,-0.3329,-0.3341,-0.3352,-0.3351,-0.3371,-0.3371,-0.3376,-0.3376,-0.338,-0.3379,-0.3389,-0.3385,-0.3385,-0.3385,-0.3385,0,-0.3185,-0.3197,-0.3216,-0.3225,-0.3238,-0.3251,-0.3264,-0.3274,-0.3287,-0.3298,-0.3308,-0.3318,-0.3333,-0.3345,-0.3354,-0.3369,-0.3373,-0.3378,-0.3381,-0.3377,-0.3377,-0.3382,-0.3382,-0.3385,-0.3385,-0.3385,-0.3385,0,-0.3185,-0.3198,-0.3215,-0.3234,-0.3239,-0.3248,-0.3265,-0.3274,-0.3284,-0.3298,-0.3303,-0.3318,-0.3333,-0.3346,-0.3366,-0.3372,-0.3387,-0.339,-0.3382,-0.3383,-0.3388,-0.3387,-0.3401,-0.3404,-0.3398,-0.3398,-0.3399,0,-0.3189,-0.3198,-0.3219,-0.3227,-0.3236,-0.3249,-0.3259,-0.3272,-0.3281,-0.33,-0.3307,-0.3323,-0.3336,-0.3359,-0.3373,-0.3388,-0.3391,-0.3395,-0.3393,-0.339,-0.3391,-0.339,-0.3391,-0.3395,-0.3395,-0.3395,-0.3395,0,-0.3195,-0.3201,-0.3214,-0.323,-0.3241,-0.3254,-0.3267,-0.3274,-0.3289,-0.3299,-0.3315,-0.3325,-0.3346,-0.3361,-0.3378,-0.3387,-0.3394,-0.3395,-0.3397,-0.3394,-0.3389,-0.3392,-0.3382,-0.3395,-0.3395,-0.3395,-0.3395,-0.3395,-0.3197,-0.3205,-0.3221,-0.3236,-0.3247,-0.326,-0.3269,-0.3281,-0.3294,-0.3312,-0.3319,-0.3335,-0.335,-0.3373,-0.3383,-0.3395,-0.3396,-0.3399,-0.34,-0.3401,-0.34,-0.3387,-0.3399,-0.3399,-0.3399,-0.3399,-0.3399,0,-0.3203,-0.3213,-0.3227,-0.3245,-0.3257,-0.3262,-0.3277,-0.3287,-0.33,-0.3314,-0.3327,-0.3345,-0.3361,-0.3375,-0.3391,-0.3399,-0.3402,-0.3402,-0.3402,-0.3404,-0.3398,-0.3395,-0.3399,-0.3399,-0.3399,-0.3399,-0.3399,-0.3399,-0.3207,-0.3222,-0.323,-0.3251,-0.3262,-0.3278,-0.3286,-0.3297,-0.3309,-0.3328,-0.3341,-0.3351,-0.3365,-0.3382,-0.3396,-0.34,-0.3406,-0.3405,-0.341,-0.3405,-0.3404,-0.3404,-0.3401,-0.3407,-0.3407,-0.3415,-0.3415,-0.3415]}]]